Hourly Data Report for October 06, 2014

All times are specified in Local Standard Time (LST). Add 1 hour to adjust for Daylight Saving Time where and when it is observed.

CAPE DORSET A
NUNAVUT

64°13'49.000" N
76°31'30.000" W
48.20 m
2400637
71366
YTE

Download Data

Hourly Data (October 2014)
Hourly Data Report for October 6, 2014
Temp Definition
°C
Dew Point Temp Definition
°C
Rel Hum Definition
%
Wind Dir Definition
10's deg

Wind Spd Definition
km/h
Visibility Definition
km
Stn Press Definition
kPa
Hmdx Definition


Wind Chill Definition


Weather Definition


TIME
00:00 Legend Double Dagger 2.5 1.0 90 9 39 12.9 100.01     LegendNANA
01:00 Legend Double Dagger 2.7 1.2 90 9 43 11.3 99.97     LegendNANA
02:00 Legend Double Dagger 2.4 2.0 97 10 48 2.8 99.94     Rain,Fog
03:00 Legend Double Dagger 2.3 LegendMM LegendMM 9 50 3.2 99.91     Rain
04:00 Legend Double Dagger 2.5 LegendMM LegendMM 9 50 8.1 99.90     Haze
05:00 Legend Double Dagger 2.7 1.6 92 9 52 14.5 99.91     Rain
06:00 Legend Double Dagger 2.4 1.1 91 10 52 16.1 99.96     LegendNANA
07:00 Legend Double Dagger 1.8 0.9 94 10 45 8.1 100.03     Fog
08:00 Legend Double Dagger 1.4 LegendMM LegendMM 10 41 3.2 100.08     Rain
09:00 Legend Double Dagger 1.1 LegendMM LegendMM 11 37 1.2 100.15     Snow
10:00 Legend Double Dagger 1.0 LegendMM LegendMM 11 28 1.6 100.21     Rain
11:00 Legend Double Dagger 1.0 LegendMM LegendMM 11 21 2.4 100.27     Rain
12:00 Legend Double Dagger 1.0 LegendMM LegendMM 9 15 0.8 100.35     Rain
13:00 Legend Double Dagger 1.2 LegendMM LegendMM 10 13 4.8 100.40     Rain
14:00 Legend Double Dagger 1.0 LegendMM LegendMM 7 9 1.0 100.45     Rain
15:00 Legend Double Dagger 1.0 LegendMM LegendMM 7 11 0.6 100.48     Rain
16:00 Legend Double Dagger 0.9 LegendMM LegendMM 7 24 0.4 100.52     Rain
17:00 Legend Double Dagger 0.9 LegendMM LegendMM 8 28 0.4 100.56     Rain
18:00 Legend Double Dagger 1.3 LegendMM LegendMM 9 32 4.0 100.62     Rain
19:00 Legend Double Dagger 1.4 LegendMM LegendMM 10 35 4.8 100.67     Rain
20:00 Legend Double Dagger 1.3 LegendMM LegendMM 9 34 2.8 100.69     Rain
21:00 Legend Double Dagger 2.1 LegendMM LegendMM 10 45 3.6 100.68     LegendNANA
22:00 Legend Double Dagger 2.2 LegendMM LegendMM 10 45 11.3 100.68     Rain
23:00 Legend Double Dagger 2.1 1.2 94 9 41 12.9 100.67     LegendNANA

Notes on Data Quality.

Legend

  • E = Estimated
  • M = Missing
  • NA = Not Available
  • ‡ = Partner data that is not subject to review by the National Climate Archives
Date modified: